Weather History for Nadi, Fiji

Change the Weather History Date:

Thursday, January 24, 2013

  Actual Average Record
Temperature  
Mean Temperature 80 °F -  
Max Temperature 87 °F 86 °F 89 °F (1998)
Min Temperature 73 °F 73 °F 69 °F (2008)
Cooling Degree Days 15    
Growing Degree Days 30 (Base 50)    
Moisture  
Dew Point 73 °F    
Average Humidity 72    
Maximum Humidity 89    
Minimum Humidity 56    
Precipitation  
Precipitation 0.00 in 0.40 in - ()
Sea Level Pressure  
Sea Level Pressure 29.79 in    
Wind  
Wind Speed 7 mph ()    
Max Wind Speed 13 mph    
Max Gust Speed -    
Visibility 12.0 miles    
Events      
Averages and records for this station are not official NWS values.
T = Trace of Precipitation, MM = Missing Value Source: Averaged Metar Reports

Daily Weather History Graph

Daily Weather History Graph

Search for Another Location

Airport:

Trip Planner

Search our weather history database for the weather conditions in past years. The results will help you decide how hot, cold, wet, or windy it might be!

Date:

Astronomy

Jan. 24, 2013 Rise Set
Actual Time 5:52 AM FJT 6:51 PM FJT
Civil Twilight 5:29 AM FJT 7:14 PM FJT
Nautical Twilight 5:01 AM FJT 7:42 PM FJT
Astronomical Twilight 4:33 AM FJT 8:10 PM FJT
Moon 4:26 PM FJT (1/24) 3:04 AM FJT (1/24)
Length of Visible Light 13h 45m
Length of Day
12h 58m
Waxing Gibbous, 91% of the Moon is Illuminated
Jan 24
Waxing Gibbous
Jan 27
Full
Feb 4
Last Quarter
Feb 10
New
Feb 18
First Quarter

Hourly Weather History & Observations

Time (FJT) Temp. Heat Index Dew Point Humidity Pressure Visibility Wind Dir Wind Speed Gust Speed Precip Events Conditions
12:00 AM 80 °F - 71 °F 69% 29.84 in 12 mi SE 6.9 mph - -   Partly Cloudy
12:00 AM 80.6 °F 84.6 °F 71.6 °F 74% 29.83 in 24.9 mi SE 6.9 mph - N/A   Mostly Cloudy
1:00 AM 78.8 °F - 71.6 °F 78% 29.80 in 24.9 mi SE 8.1 mph - N/A   Scattered Clouds
2:00 AM 78.8 °F - 71.6 °F 78% 29.77 in 24.9 mi SE 8.1 mph - N/A   Scattered Clouds
3:00 AM 77 °F - 70 °F 73% 29.78 in 12 mi SE 8.1 mph - -   Partly Cloudy
3:00 AM 77.0 °F - 69.8 °F 78% 29.77 in 24.9 mi SE 8.1 mph - N/A   Scattered Clouds
4:00 AM 75.2 °F - 69.8 °F 83% 29.77 in 24.9 mi East 5.8 mph - N/A   Partly Cloudy
5:00 AM 75.2 °F - 69.8 °F 83% 29.77 in 24.9 mi East 5.8 mph - N/A   Partly Cloudy
6:00 AM 74 °F - 70 °F 83% 29.79 in 12 mi East 5.8 mph - -   Partly Cloudy
6:00 AM 73.4 °F - 69.8 °F 88% 29.77 in 28.0 mi East 5.8 mph - N/A   Mostly Cloudy
7:00 AM 77.0 °F - 71.6 °F 83% 29.80 in 31.1 mi East 8.1 mph - N/A   Mostly Cloudy
8:00 AM 82.4 °F 87.2 °F 71.6 °F 70% 29.80 in 31.1 mi East 6.9 mph - N/A   Mostly Cloudy
9:00 AM 84 °F - 71 °F 56% 29.82 in 31 mi SSE 5.8 mph - -   Partly Cloudy
9:00 AM 84.2 °F 89.6 °F 71.6 °F 66% 29.80 in 31.1 mi SSE 5.8 mph - N/A   Mostly Cloudy
10:00 AM 87.8 °F 93.8 °F 71.6 °F 58% 29.80 in 31.1 mi East 6.9 mph - N/A   Mostly Cloudy
11:00 AM 86.0 °F 93.4 °F 73.4 °F 66% 29.80 in 31.1 mi ESE 9.2 mph - N/A   Mostly Cloudy
12:00 PM 86 °F - 74 °F 61% 29.81 in 31 mi ESE 11.5 mph - -   Partly Cloudy
12:00 PM 86.0 °F 95.1 °F 75.2 °F 70% 29.80 in 31.1 mi ESE 11.5 mph - N/A   Mostly Cloudy
1:00 PM 87.8 °F 95.6 °F 73.4 °F 62% 29.77 in 31.1 mi ESE 11.5 mph - N/A   Mostly Cloudy
2:00 PM 87.8 °F 97.6 °F 75.2 °F 66% 29.77 in 31.1 mi WNW 12.7 mph - N/A   Scattered Clouds
3:00 PM 87 °F - 74 °F 57% 29.77 in 31 mi WNW 11.5 mph - -   Partly Cloudy
3:00 PM 87.8 °F 95.6 °F 73.4 °F 62% 29.74 in 31.1 mi WNW 11.5 mph - N/A   Scattered Clouds
4:00 PM 86.0 °F 93.4 °F 73.4 °F 66% 29.74 in 31.1 mi WNW 10.4 mph - N/A   Scattered Clouds
5:00 PM 86.0 °F 93.4 °F 73.4 °F 66% 29.74 in 31.1 mi NW 10.4 mph - N/A   Scattered Clouds
6:00 PM 84 °F - 74 °F 65% 29.76 in 31 mi WNW 8.1 mph - -   Partly Cloudy
6:00 PM 84.2 °F 90.9 °F 73.4 °F 70% 29.74 in 31.1 mi WNW 10.4 mph - N/A   Mostly Cloudy
7:00 PM 84.2 °F 90.9 °F 73.4 °F 70% 29.77 in 31.1 mi NW 4.6 mph - N/A   Mostly Cloudy
8:00 PM 82.4 °F 89.5 °F 75.2 °F 79% 29.80 in 24.9 mi Calm Calm - N/A   Scattered Clouds
9:00 PM 80 °F - 76 °F 84% 29.82 in 12 mi SSE 4.6 mph - -   Partly Cloudy
9:00 PM 80.6 °F 87.1 °F 77.0 °F 89% 29.80 in 24.9 mi SSE 4.6 mph - N/A   Scattered Clouds
10:00 PM 80.6 °F 85.4 °F 73.4 °F 79% 29.83 in 24.9 mi SSE 3.5 mph - N/A   Scattered Clouds
11:00 PM 78.8 °F - 73.4 °F 83% 29.83 in 24.9 mi SSE 3.5 mph - N/A   Scattered Clouds